Flag for France Weather past 2 weeks in Orléans, France

Now
46 °F

Fog.


Feels Like: 44 °F
Forecast: 42 / 66 °F
Wind: 6 mph from Northeast

Location: Orleans Airport

Current Time: Sep 23, 2014 at 8:51:54 AM

Latest Report: Sep 23, 2014 at 8:30 AM


Visibility: 1 mi

Pressure: 30.12 "Hg

Humidity: 93%

Dew point: 45 °F

Location of OrléansLocation

Historic Weather in Orléans — Graph

°F

Orléans temperature yesterday

Maximum temperature yesterday: 64 °F (at 2:30 PM)
Minimum temperature yesterday: 48 °F (at 6:00 AM)
Average temperature yesterday: 56 °F

Past Weeks' High & Low Weather Summary

 TemperatureHumidityPressure
High81 °F (Sep 8, 4:00 PM)100% (Sep 15, 7:00 AM)30.24 "Hg (Sep 15, 7:00 AM)
Low46 °F (Sep 23, 7:30 AM)41% (Sep 12, 6:00 PM)29.74 "Hg (Sep 17, 6:00 AM)
Average63 °F74%30.00 "Hg
* Reported Sep 8 7:00 AM — Sep 23 7:30 AM, Orléans, Weather by CustomWeather, © 2014

Note: Actual official high and low records may vary slightly from our data, if they occured in-between our weather recording intervals... More about our weather records

Advertising

Orléans weather history for previous 24 hours

 ConditionsComfort  
Time TempWeatherWind HumidityBarometerVisibility
7:30 AM
Sep 23
46 °FFog.8 mph93%30.12 "Hg1 mi
7:00 AM48 °FFog.12 mph87%30.12 "Hg1 mi
6:30 AM48 °FFog.10 mph94%30.12 "Hg1 mi
6:00 AM48 °FFog.12 mph94%30.12 "Hg1 mi
5:30 AM48 °FFog.12 mph94%30.12 "Hg1 mi
5:00 AM48 °FFog.10 mph94%30.15 "Hg1 mi
4:30 AM48 °FFog.10 mph94%30.15 "Hg1 mi
4:00 AM50 °FFog.10 mph88%30.15 "Hg1 mi
3:30 AM50 °FFog.10 mph88%30.18 "Hg2 mi
3:00 AM50 °FFog.12 mph88%30.18 "Hg2 mi
2:30 AM48 °FFog.12 mph87%30.18 "Hg2 mi
2:00 AM48 °FFog.7 mph87%30.21 "Hg2 mi
1:30 AM48 °FFog.7 mph87%30.21 "Hg3 mi
1:00 AM48 °FFog.6 mph87%30.21 "Hg3 mi
12:30 AM50 °FClear.7 mph88%30.21 "Hg4 mi
12:00 AM50 °FClear.8 mph88%30.21 "Hg4 mi
11:30 PM
Sep 22
52 °FClear.3 mph82%30.21 "Hg5 mi
11:00 PM54 °FClear.7 mph77%30.21 "Hg6 mi
10:30 PM54 °FPassing clouds.6 mph77%30.21 "HgN/A
10:00 PM54 °FClear.7 mph77%30.21 "HgN/A
9:30 PM55 °FClear.7 mph72%30.21 "HgN/A
9:00 PM57 °FPassing clouds.7 mph67%30.21 "HgN/A
8:30 PM57 °FPartly sunny.8 mph67%30.21 "HgN/A
8:00 PM59 °FBroken clouds.8 mph63%30.18 "HgN/A
7:30 PM59 °FPassing clouds.8 mph63%30.18 "HgN/A
7:00 PM61 °FPartly sunny.8 mph59%30.18 "HgN/A
6:30 PM63 °FScattered clouds.7 mph56%30.18 "HgN/A
6:00 PM64 °FPassing clouds.8 mph49%30.18 "HgN/A
5:30 PM63 °FPartly sunny.9 mph56%30.18 "HgN/A
5:00 PM63 °FBroken clouds.12 mph56%30.18 "HgN/A
4:30 PM64 °FBroken clouds.10 mph56%30.21 "HgN/A
4:00 PM64 °FPartly sunny.12 mph56%30.21 "HgN/A
3:30 PM63 °FPartly sunny.13 mph59%30.21 "HgN/A
3:00 PM63 °FBroken clouds.12 mph59%30.21 "HgN/A
2:30 PM64 °FBroken clouds.9 mph56%30.21 "HgN/A
2:00 PM63 °FBroken clouds.9 mph64%30.21 "HgN/A
1:30 PM63 °FScattered clouds.10 mph64%30.21 "HgN/A
1:00 PM63 °FBroken clouds.12 mph68%30.24 "HgN/A
12:30 PM61 °FBroken clouds.10 mph77%30.24 "HgN/A
12:00 PM61 °FBroken clouds.10 mph77%30.24 "HgN/A
11:30 AM59 °FBroken clouds.13 mph82%30.24 "HgN/A
11:00 AM57 °FPartly sunny.12 mph88%30.24 "HgN/A
10:30 AM55 °FPartly sunny.12 mph88%30.24 "HgN/A
10:00 AM54 °FPartly sunny.8 mph94%30.24 "Hg4 mi
9:30 AM52 °FFog.8 mph94%30.24 "Hg3 mi
9:00 AM50 °FFog.5 mph94%30.24 "Hg3 mi
8:30 AM48 °FFog.6 mph94%30.24 "Hg2 mi
8:00 AM48 °FFog.7 mph94%30.21 "Hg2 mi
Weather by CustomWeather, © 2014

See weather overviewHow to use our weather pages